Nebraska City, NE

9:45 AM CDT on June 03, 2015 (GMT -0500)
Nebraska City Municipal | | Change Station
CLOSE
Current Station
Airport
Location: Nebraska City,
Elevation: 1161 ft
Nearby Weather Stations

Elev 1161 ft 40.61 °N, 95.86 °W | Updated 10 minutes ago

Rain
Rain
64 °F
Feels Like 64 °F
N
13
Wind Variable Wind from South
Gusts 18 mph

Today
High -- | Low -- °F
--% Chance of Precip.
Yesterday
High -- | Low -- °F
Precip. -- in
5:53 AM 8:49 PM
Full, 99% visible
Pressure 29.92 in
Visibility 5.0 miles
Clouds Scattered Clouds 3000 ft
Mostly Cloudy 6000 ft
Overcast 7500 ft
Dew Point 64 °F
Humidity 99%
Rainfall 0.81 in
Snow Depth Not available.
UV 2 out of 12
Pollen 3.50 out of 12
Air Quality Not available.
Flu Activity No Activity
METAR KAFK 031435Z AUTO 17011G16KT 5SM RA SCT030 BKN060 OVC075 18/18 A2992 RMK AO2 P0008 T01760175

More Conditions Fewer Conditions

Pressure 29.92 in
Visibility 5.0 miles
Clouds Scattered Clouds 3000 ft
Mostly Cloudy 6000 ft
Overcast 7500 ft
Dew Point 64 °F
Humidity 99%
Rainfall 0.81 in
Snow Depth Not available.
UV 2 out of 12
Pollen 3.50 out of 12
Air Quality Not available.
Flu Activity No Activity
METAR KAFK 031435Z AUTO 17011G16KT 5SM RA SCT030 BKN060 OVC075 18/18 A2992 RMK AO2 P0008 T01760175

More Conditions Fewer Conditions

10-Day Weather Forecast

×

Almanac

Astronomy

Jun. 03, 2015 Rise Set
Actual Time
Civil Twilight
Nautical Twilight
Astronomical Twilight
Moon
Length of Visible Light
Length of Day
Tomorrow will be .
, % of the Moon is Illuminated

Today's Extremes

State Highs State Lows

Community

WunderPhotos

Upload Photos

1,826,230 photos uploaded!

WunderBlogs® & News

Nearby

Air Quality

  Air Quality AQ Index Pollutant
Not available.

Snow Depth

Station Depth Elevation

Earthquake Activity

City Distance Mag. Time & Date
Minimum magnitude displayed is 2.5.

Coastal Water Temperatures

Place Temperature

Stations

Nearby Weather Stations

Station Location Temp. Windchill Dew Point Humidity Wind Precip. Elev Updated Type